Location: Newark
(52.1031°N, 9.3600°E)
Time: 04:50:31
(UTC+00:00)

Envisat - Pass Details

Date: 25 October 2019
Orbit: 764 x 766 km, 98.1° (Epoch: 19 November)

Event Time Altitude Azimuth Distance (km) Brightness Sun altitude
Rises 17:45:01 0° 180° (S) 3,222 6.2 -15.5°
Reaches altitude 10° 17:47:23 10° 186° (S) 2,300 5.5 -15.8°
Maximum altitude 17:52:18 49° 261° (W) 991 4.0 -16.6°
Drops below altitude 10° 17:57:14 10° 336° (NNW) 2,316 5.8 -17.3°
Sets 17:59:38 0° 342° (NNW) 3,247 6.5 -17.7°
